Find DMSP F-11

NORAD ID: 21798 Int'l Des: 1991-082 Owner: AFSSD2 Country: US operational
LEOCIRCULARRETROGRADESSO

Aktuelle Ansicht

3D-Globus wird geladen...

Über DMSP F-11

Beschreibung wird geladen...

Nächste Überflüge

Passes for default location (London). Set your location on the main map for personalized predictions.

Höhenverlauf

Loading altitude history...

Zweizeiliger Elementsatz

1 21798U 91082A 26149.56992180 .00000096 00000-0 68802-4 0 9992
2 21798 98.6912 178.2349 0011725 329.3756 30.6733 14.17445005782492
Epoch: 29. Mai 2026 • Age: 15 hours

Aktueller Status

Höhe 830.7 km
Geschwindigkeit 7.44 km/s
Subsatellitenpunkt -8.81°S, 140.77°W
Startdatum 28. Nov. 1991
Alter 34.5 years
Typ other

Technische Details

Klassifizierung Payload
Masse 749.00 kg
Trockenmasse 749.00 kg
Gesamtmasse 1456.00 kg
Länge 3.40 m
Durchmesser 1.20 m
Spannweite 5.00 m
Form Box + Pan
Hersteller GEEW
Bus-Typ Block 5D
Phasenstatus In Orbit
Besitzer/Staat AFSSD2/US

Most Searched